| time (UTC) | temp F | wind direction | speed MPH | gust MPH | rain 1hr in | rain 24hr in | rain mn in | humidity % | barometer mb |
| 20260503023039 | 59 | 38 | 7.0 | 13.0 | 0.00 | 0.00 | 0.00 | 75 | 1033.9 |
| 20260503021607 | 59 | 29 | 7.0 | 13.0 | 0.00 | 0.00 | 0.00 | 73 | 1033.9 |
| 20260503020014 | 59 | 35 | 7.0 | 14.0 | 0.00 | 0.00 | 0.00 | 72 | 1034.0 |
| 20260503014537 | 59 | 46 | 6.0 | 13.0 | 0.00 | 0.00 | 0.00 | 73 | 1034.2 |
| 20260503011528 | 59 | 17 | 10.0 | 16.0 | 0.00 | 0.00 | 0.00 | 72 | 1034.5 |
| 20260503010010 | 59 | 48 | 10.0 | 17.0 | 0.00 | 0.00 | 0.00 | 72 | 1034.6 |
| 20260503004539 | 59 | 70 | 6.0 | 13.0 | 0.00 | 0.00 | 0.00 | 73 | 1034.6 |
| 20260503003113 | 59 | 3 | 9.0 | 17.0 | 0.00 | 0.00 | 0.00 | 72 | 1034.9 |
| 20260503001525 | 60 | 13 | 9.0 | 12.0 | 0.00 | 0.00 | 0.00 | 72 | 1035.1 |
| 20260503000041 | 60 | 338 | 7.0 | 11.0 | 0.00 | 0.00 | 0.00 | 70 | 1035.2 |
| 20260502234534 | 60 | 45 | 4.0 | 12.0 | 0.00 | 0.00 | 0.00 | 74 | 1035.3 |
| 20260502233103 | 60 | 52 | 4.0 | 12.0 | 0.00 | 0.00 | 0.00 | 73 | 1035.5 |
| 20260502231511 | 59 | 177 | 3.0 | 12.0 | 0.00 | 0.00 | 0.00 | 73 | 1035.5 |
| 20260502230044 | 59 | 57 | 4.0 | 9.0 | 0.00 | 0.00 | 0.00 | 73 | 1035.6 |
| 20260502224532 | 59 | 2 | 5.0 | 10.0 | 0.00 | 0.00 | 0.00 | 72 | 1035.8 |
| 20260502223014 | 59 | 142 | 3.0 | 8.0 | 0.00 | 0.00 | 0.00 | 73 | 1035.7 |
| 20260502221524 | 59 | 49 | 1.0 | 6.0 | 0.00 | 0.00 | 0.00 | 75 | 1035.8 |
| 20260502220024 | 58 | 78 | 0.0 | 4.0 | 0.00 | 0.00 | 0.00 | 78 | 1035.9 |
| 20260502214554 | 57 | 104 | 0.0 | 2.0 | 0.00 | 0.00 | 0.00 | 84 | 1036.1 |
| 20260502213039 | 55 | 150 | 1.0 | 3.0 | 0.00 | 0.00 | 0.00 | 84 | 1036.2 |
| 20260502211535 | 54 | 87 | 0.0 | 2.0 | 0.00 | 0.00 | 0.00 | 88 | 1036.2 |
| 20260502210054 | 53 | 88 | 1.0 | 2.0 | 0.00 | 0.00 | 0.00 | 90 | 1036.2 |
| 20260502204530 | 51 | 91 | 1.0 | 5.0 | 0.00 | 0.00 | 0.00 | 92 | 1036.2 |
| 20260502203013 | 51 | 92 | 0.0 | 2.0 | 0.00 | 0.00 | 0.00 | 94 | 1036.2 |
| 20260502201526 | 50 | 72 | 0.0 | 2.0 | 0.00 | 0.00 | 0.00 | 94 | 1036.3 |
| 20260502200008 | 49 | 126 | 0.0 | 2.0 | 0.00 | 0.00 | 0.00 | 95 | 1036.1 |
| 20260502194537 | 49 | 78 | 0.0 | 2.0 | 0.00 | 0.00 | 0.00 | 95 | 1036.1 |
| 20260502193051 | 48 | 263 | 0.0 | 2.0 | 0.00 | 0.00 | 0.00 | 95 | 1036.0 |
| 20260502191517 | 48 | 280 | 0.0 | 3.0 | 0.00 | 0.00 | 0.00 | 94 | 1036.0 |
| 20260502190010 | 48 | 39 | 0.0 | 2.0 | 0.00 | 0.00 | 0.00 | 94 | 1035.9 |
| 20260502184601 | 48 | 90 | 1.0 | 2.0 | 0.00 | 0.00 | 0.00 | 95 | 1035.8 |
| 20260502183040 | 48 | 161 | 0.0 | 2.0 | 0.00 | 0.00 | 0.00 | 94 | 1035.8 |
| 20260502163043 | 48 | 66 | 1.0 | 3.0 | 0.00 | 0.00 | 0.00 | 95 | 1035.7 |
| 20260502161559 | 47 | 81 | 0.0 | 2.0 | 0.00 | 0.00 | 0.00 | 95 | 1035.6 |
| 20260502151529 | 46 | 71 | 0.0 | 3.0 | 0.00 | 0.00 | 0.00 | 94 | 1035.6 |
| 20260502123018 | 46 | 95 | 1.0 | 3.0 | 0.00 | 0.00 | 0.00 | 94 | 1035.8 |
| 20260502121531 | 46 | 93 | 1.0 | 3.0 | 0.00 | 0.00 | 0.00 | 94 | 1035.8 |
| 20260502114557 | 47 | 93 | 2.0 | 4.0 | 0.00 | 0.00 | 0.00 | 95 | 1035.7 |
| 20260502113037 | 46 | 98 | 1.0 | 4.0 | 0.00 | 0.00 | 0.00 | 94 | 1035.7 |
| 20260502113015 | 46 | 104 | 1.0 | 4.0 | 0.00 | 0.00 | 0.00 | 94 | 1035.7 |
| 20260502111548 | 47 | 93 | 0.0 | 1.0 | 0.00 | 0.00 | 0.00 | 94 | 1035.7 |
| 20260502110038 | 47 | 112 | 1.0 | 3.0 | 0.00 | 0.00 | 0.00 | 94 | 1035.7 |
| 20260502104520 | 47 | 75 | 0.0 | 1.0 | 0.00 | 0.00 | 0.00 | 93 | 1035.7 |
| 20260502103048 | 47 | 88 | 0.0 | 2.0 | 0.00 | 0.00 | 0.00 | 93 | 1035.7 |
| 20260502101536 | 48 | 81 | 1.0 | 3.0 | 0.00 | 0.00 | 0.00 | 93 | 1035.5 |
| 20260502070031 | 52 | 131 | 3.0 | 6.0 | 0.00 | 0.00 | 0.00 | 88 | 1034.4 |
| 20260502064541 | 52 | 140 | 4.0 | 6.0 | 0.00 | 0.00 | 0.00 | 89 | 1034.3 |
| 20260502061510 | 54 | 142 | 3.0 | 4.0 | 0.00 | 0.00 | 0.00 | 86 | 1033.9 |
| 20260502060028 | 55 | 126 | 1.0 | 2.0 | 0.00 | 0.00 | 0.00 | 82 | 1033.8 |
| 20260502054510 | 56 | 78 | 0.0 | 1.0 | 0.00 | 0.00 | 0.00 | 79 | 1033.8 |
| 20260502053102 | 57 | 95 | 0.0 | 2.0 | 0.00 | 0.00 | 0.00 | 78 | 1033.7 |
| 20260502051523 | 59 | 73 | 0.0 | 2.0 | 0.00 | 0.00 | 0.00 | 76 | 1033.6 |
| 20260502050101 | 60 | 142 | 0.0 | 4.0 | 0.00 | 0.00 | 0.00 | 74 | 1033.6 |
| 20260502044533 | 60 | 117 | 1.0 | 8.0 | 0.00 | 0.00 | 0.00 | 73 | 1033.6 |
| 20260502043015 | 62 | 77 | 3.0 | 7.0 | 0.00 | 0.00 | 0.00 | 71 | 1033.6 |
| 20260502041514 | 62 | 39 | 5.0 | 8.0 | 0.00 | 0.00 | 0.00 | 71 | 1033.6 |
| 20260502040036 | 62 | 43 | 5.0 | 11.0 | 0.00 | 0.00 | 0.00 | 70 | 1033.6 |
| 20260502034501 | 61 | 31 | 2.0 | 10.0 | 0.00 | 0.00 | 0.00 | 73 | 1033.6 |
| 20260502033023 | 61 | 25 | 5.0 | 13.0 | 0.00 | 0.00 | 0.00 | 72 | 1033.8 |
| 20260502031544 | 61 | 78 | 5.0 | 13.0 | 0.00 | 0.00 | 0.00 | 73 | 1033.8 |
| 20260502030037 | 61 | 43 | 4.0 | 15.0 | 0.00 | 0.00 | 0.00 | 74 | 1034.0 |
| 20260502024556 | 61 | 10 | 3.0 | 12.0 | 0.00 | 0.00 | 0.00 | 72 | 1034.0 |